Hourly Weather Roundup
Issued by NWS

Current Version | Previous Version | Text Only | Print | Product List | Glossary On
Versions: 1 2 3 4 5 6 7 8 9 10 11 12 13 14 15 16 17 18 19 20 21 22 23 24 25 26 27 28 29 30 31 32 33 34 35 36 37 38 39 40 41 42 43 44 45 46 47 48 49 50
000
NZUS43 KILX 252110
HWRCRS

CRS HOURLY WEATHER ROUNDUP
NATIONAL WEATHER SERVICE, LINCOLN IL
400 PM CDT THU AUG 25 2016


CITY           SKY/WX    TMP DP  RH WIND       PRES   REMARKS
CHAMPAIGN      MOSUNNY   84  73  69 W8        30.06S HX  90
LAWRENCEVILLE  MOSUNNY   90  75  61 SW7       30.05F HX 100
PEORIA         CLOUDY    80  73  79 SW8       30.05S HX  84
SPRINGFIELD    PTSUNNY   86  71  60 SW6       30.05S HX  91
$$


CITY           SKY/WX    TMP DP  RH WIND       PRES   REMARKS
BLOOMINGTON    PTSUNNY   83  72  69 SW9       30.07F HX  88
DECATUR        PTSUNNY   86  71  60 W10       30.05F HX  91
EFFINGHAM      CLOUDY    88  76  67 S7        30.06S HX  99
FLORA          SUNNY     91  76  61 S7        30.04F HX 102
GALESBURG      CLOUDY    80  69  69 N3        30.06F HX  82
JACKSONVILLE   PTSUNNY   83  74  74 N6        30.05F HX  89
LACON          CLOUDY    80  69  71 N3        30.04S HX  82
LINCOLN        PTSUNNY   83  74  73 CALM      30.05S HX  90
LITCHFIELD     SUNNY     91  72  53 S5        30.04F HX  98

CITY           SKY/WX    TMP DP  RH WIND       PRES   REMARKS
MACOMB         CLOUDY    78  72  80 CALM      30.07F HX  81
MATTOON        PTSUNNY   85  71  63 SW5       30.05F HX  90
MOLINE         MOSUNNY   80  65  59 NW5       30.06  HX  82
OLNEY          MOSUNNY   90  75  62 S6        30.05F HX 100
PARIS          MOSUNNY   85  74  68 CALM      30.06F HX  92
PONTIAC        CLOUDY    81  75  80 W3        30.05S HX  87
QUINCY         SUNNY     83  72  69 CALM      30.03F HX  88
RANTOUL        PTSUNNY   84  74  71 W6        30.06S HX  92
ROBINSON       MOSUNNY   85  78  77 SW5       30.05F HX  97
TAYLORVILLE    PTSUNNY   84  73  68 CALM      30.05F HX  90
TERRE HAUTE    MOSUNNY   88  71  57 VRB6      30.05F HX  94
$$


CITY           SKY/WX    TMP DP  RH WIND       PRES   REMARKS
BURLINGTON     CLOUDY    79  62  56 NE6       30.05F HX  80
CHICAGO        CLOUDY    82  63  52 W6        30.02S HX  83
DES MOINES     CLOUDY    76  64  66 N5        30.09F
EVANSVILLE     MOSUNNY   91  71  51 SW7       30.06F HX  97
INDIANAPOLIS   MOSUNNY   89  70  53 SW16      30.05F HX  94
KANSAS CITY    PTSUNNY   82  69  64 N5        30.05F HX  85
MILWAUKEE      PTSUNNY   80  62  54 E6        30.01F HX  81
ST LOUIS       PTSUNNY   93  70  46 W10       30.03F HX  99
$$





USA.gov is the U.S. government's official web portal to all federal, state and local government web resources and services.